[[{"header":{"parameterUnit":"m.s-1","parameterCategory":1,"la1":30.2992,"la2":30.254,"lo1":-89.0895,"lo2":-89.0443,"dy":0.0025,"dx":0.0025,"nx":19,"ny":19,"refTime":"2026-04-22T09:00:00:Z","depth":0,"parameterNumber":2,"parameterNumberName":"U-component_of_WINDS"},"data":[0,0,0,-5.2373,-5.2374,-5.2416,-5.2417,-5.2487,-5.2488,0,0,0,0,0,0,0,0,0,0,0,-5.2371,-5.2371,-5.2373,-5.2374,-5.2416,-5.2417,-5.2487,-5.2488,0,0,0,0,0,0,0,0,0,0,0,-5.237,-5.2371,-5.2372,-5.2374,-5.2416,-5.2417,-5.2487,-5.2449,0,0,0,0,0,0,0,0,0,0,-5.2405,-5.2413,-5.2371,-5.2372,-5.2375,-5.2416,-5.2417,-5.2447,-5.2451,-5.2475,0,-5.2499,0,-5.2495,-5.2494,-5.2494,0,0,0,-5.2366,-5.2409,-5.2411,-5.2372,-5.2375,-5.2416,-5.2395,-5.2449,-5.2454,-5.2481,-5.25,-5.2502,-5.2496,-5.2495,-5.2495,-5.2659,-5.266,0,0,-5.2364,-5.2383,-5.2408,-5.2415,-5.241,-5.2394,-5.2397,-5.2452,-5.2474,-5.25,-5.2504,-5.2498,-5.2495,-5.2496,-5.2658,-5.266,0,0,0,-5.2363,-5.2382,-5.2383,-5.2413,-5.2419,-5.2395,-5.2398,-5.2471,-5.247,-5.2504,-5.2498,-5.2496,-5.2497,-5.2657,-5.2659,-5.2732,0,0,0,-5.2361,-5.2381,-5.2382,-5.2394,-5.2419,-5.2446,-5.2417,-5.2466,-5.2472,-5.2498,-5.2496,-5.2498,-5.2656,-5.2658,-5.2727,-5.2762,0,0,0,-5.2364,-5.2381,-5.2391,-5.2395,-5.2414,-5.2444,-5.2446,-5.2467,-5.2469,-5.2494,-5.2498,-5.2655,-5.2657,-5.2723,-5.2755,-5.2809,0,0,0,-5.2373,-5.2455,-5.2393,-5.2483,-5.2414,-5.249,-5.2445,-5.2501,-5.2532,-5.2496,-5.2656,-5.2659,-5.2721,-5.2751,-5.2805,-5.2857,-5.2881,0,0,-5.2487,-5.247,-5.2521,-5.2466,-5.2559,-5.2482,-5.2585,-5.2596,-5.2581,-5.2634,-5.2638,-5.2729,-5.2754,-5.2808,-5.3014,-5.3033,0,0,0,-5.2564,-5.2601,-5.2621,-5.2652,-5.2663,-5.2675,-5.2668,-5.2672,-5.2716,-5.2612,-5.2764,-5.2779,-5.281,-5.2833,-5.285,-5.2874,-5.2671,-5.2671,-5.2671,-5.275,-5.2728,-5.2811,-5.2795,-5.2826,-5.2819,-5.2841,-5.2846,-5.2813,-5.285,-5.2864,-5.2992,-5.302,-5.3032,-5.3058,-5.2892,-5.2893,-5.2893,-5.2893,-5.2914,-5.2961,-5.2919,-5.2984,-5.2961,-5.3015,-5.3013,-5.2989,-5.3035,-5.2979,-5.3005,-5.2942,-5.3054,-5.3076,-5.2899,-5.2898,-5.2897,-5.2896,-5.2896,-5.303,-5.3049,-5.3054,-5.3098,-5.3134,-5.3115,-5.3163,-5.314,-5.3119,-5.3145,-5.3157,-5.3155,-5.3149,-5.3153,-5.3154,-5.3154,-5.3154,-5.3155,-5.3155,-5.3148,-5.3152,-5.3194,-5.3215,-5.3232,-5.3253,-5.3249,-5.3265,-5.3277,-5.3257,-5.3257,-5.322,-5.3071,-5.3032,-5.3162,-5.316,-5.3159,-5.3159,-5.3158,-5.3316,-5.3275,-5.3341,-5.3359,-5.3381,-5.3419,-5.3391,-5.3427,-5.3437,-5.3462,-5.3421,-5.3315,-5.3295,-5.3282,-5.3249,-5.3427,-5.3427,-5.3427,-5.3427,-5.3412,-5.3401,-5.3464,-5.3494,-5.3521,-5.3503,-5.3578,-5.3577,-5.3569,-5.3574,-5.3546,-5.3503,-5.349,-5.3477,-5.346,-5.3428,-5.3648,-5.3648,-5.3649,-5.3513,-5.3504,-5.3572,-5.3565,-5.3581,-5.3596,-5.3666,-5.3702,-5.3685,-5.3657,-5.3577,-5.3568,-5.3497,-5.3476,-5.3442,-5.3415,-5.3358,0,0]},{"header":{"parameterUnit":"m.s-1","parameterCategory":1,"la1":30.2992,"la2":30.254,"lo1":-89.0895,"lo2":-89.0443,"dy":0.0025,"dx":0.0025,"nx":19,"ny":19,"refTime":"2026-04-22T09:00:00:Z","depth":0,"parameterNumber":3,"parameterNumberName":"V-component_of_WINDS"},"data":[0,0,0,3.5274,3.5274,3.5297,3.5297,3.5315,3.5315,0,0,0,0,0,0,0,0,0,0,0,3.526,3.526,3.5274,3.5274,3.5297,3.5297,3.5315,3.5315,0,0,0,0,0,0,0,0,0,0,0,3.526,3.526,3.526,3.5274,3.5297,3.5298,3.5315,3.5301,0,0,0,0,0,0,0,0,0,0,3.5281,3.5262,3.526,3.526,3.5274,3.5297,3.5298,3.5301,3.5302,3.53,0,3.5297,0,3.5307,3.5316,3.5316,0,0,0,3.5278,3.5261,3.5274,3.526,3.5274,3.5297,3.5288,3.5302,3.5303,3.5301,3.5297,3.5298,3.5307,3.5316,3.5316,3.5294,3.5294,0,0,3.5277,3.526,3.5273,3.5274,3.5272,3.5287,3.5289,3.5303,3.5297,3.5298,3.5299,3.5307,3.5316,3.5316,3.5295,3.5294,0,0,0,3.527,3.5259,3.5272,3.5273,3.5279,3.5288,3.5289,3.5296,3.5302,3.5299,3.5307,3.5316,3.5316,3.5295,3.5294,3.5266,0,0,0,3.527,3.5256,3.5271,3.5261,3.5278,3.5288,3.5282,3.5301,3.5303,3.5307,3.5316,3.5316,3.5295,3.5295,3.5268,3.5254,0,0,0,3.5261,3.5255,3.5256,3.526,3.527,3.5288,3.5295,3.5301,3.5307,3.5316,3.5316,3.5295,3.5295,3.5269,3.5256,3.5245,0,0,0,3.5246,3.5228,3.5255,3.5239,3.527,3.5271,3.5295,3.5296,3.5299,3.5316,3.5295,3.5294,3.5269,3.5258,3.5246,3.5232,3.5225,0,0,3.5214,3.5223,3.5215,3.5241,3.5233,3.5269,3.5257,3.5274,3.5288,3.5291,3.5291,3.5267,3.5257,3.5245,3.5192,3.5186,0,0,0,3.5199,3.5193,3.5195,3.5199,3.5215,3.5227,3.5248,3.5255,3.526,3.5287,3.5261,3.5255,3.5249,3.5243,3.5238,3.5234,3.5291,3.5291,3.5291,3.5128,3.5151,3.5139,3.5166,3.517,3.5195,3.5201,3.5215,3.5233,3.5227,3.5227,3.5192,3.5184,3.5181,3.5177,3.5222,3.5222,3.5222,3.5222,3.5083,3.5078,3.5109,3.5108,3.5133,3.5132,3.5156,3.517,3.5173,3.5192,3.5188,3.5207,3.5174,3.5171,3.522,3.522,3.522,3.5221,3.5221,3.5038,3.504,3.5052,3.5064,3.5071,3.5098,3.5101,3.5123,3.5142,3.5138,3.5142,3.5143,3.5146,3.5139,3.5139,3.5139,3.5139,3.5139,3.5139,3.4986,3.5001,3.5002,3.502,3.5028,3.5042,3.507,3.5078,3.5092,3.5107,3.5107,3.5127,3.5167,3.5176,3.5137,3.5137,3.5137,3.5138,3.5138,3.493,3.4948,3.4949,3.4957,3.4983,3.4989,3.5019,3.5034,3.5044,3.5045,3.5068,3.5094,3.5104,3.5108,3.5115,3.5063,3.5063,3.5063,3.5063,3.4892,3.4901,3.4909,3.4922,3.4937,3.4965,3.4966,3.499,3.5015,3.5023,3.5034,3.5047,3.505,3.5058,3.5064,3.5071,3.5008,3.5008,3.5008,3.486,3.4872,3.4868,3.4897,3.492,3.4939,3.4941,3.4954,3.4987,3.5006,3.503,3.5032,3.5053,3.5059,3.5075,3.5083,3.5097,0,0]}]]